sat.trackr.live / text

‹ back to catalog

STARLINK-34187

NORAD 63956 · 2025-099E

PAYLOAD ACTIVE UNKNOWN

§ Identity

Operator
Country
US
Launch date
2025-05-13
Launch site
AFETR
Launch vehicle
Mass (kg)
RCS (m²)

Purposes: comms

External: N2YO · Heavens-Above · Gunter

§ Orbital elements

Epoch: 2026-09-20T09:53:48.203808Z

Period
94.27 min
Inclination
43.0009°
Eccentricity
0.0000454
Mean motion
15.27591955 rev/d
Perigee alt
482.7 km
Apogee alt
483.3 km
Semi-major
6,861.2 km
B*
4.8522e-4
RAAN
156.7902°
Arg perigee
354.7443°
Mean anomaly
5.3404°
Rev number
7,711

§ Raw data

STARLINK-341871 63956U 25099E   26263.41236347  .00013119  00000+0  48522-3 0  99912 63956  43.0009 156.7902 0000454 354.7443   5.3404 15.27591955 77111

JSON: /api/v1/satellites/63956 · /tle

For live sub-satellite position, see the globe view (requires WebGL).

§ Visibility from observer

Set your observer location to see the next 7 days of passes ≥ 10°. The values pass through the URL so the page stays shareable.

No JS? Fill the form by hand. The geolocation button needs JavaScript.